Temperature
12 12 12 13 14 15 15 15 14 15 16 17 16 17 17 18 17 16 17 17 17 18 18 18 19 19 19 19 19 19 19 19 18 18 18 18 18 18 18 17 17 16 15 15
11 12 13 14 13 14 14 14 14 16 18 18 18 17 17 17 16 16 17 17 18 18 18 18 18 18 19 19 19 19 18 18 19 18 18 17 17 17 17 16 15 15 14 14
13 14 14 14 14 14 14 13 14 16 17 17 17 16 17 17 16 16 17 17 17 17 17 17 17 18 18 19 18 19 18 18 17 18 17 17 16 16 15 15 14 14 14 13
12 14 14 14 14 14 13 15 16 17 16 15 16 15 16 15 15 15 15 17 17 16 16 16 16 17 17 17 17 17 17 17 16 16 16 16 15 14 14 14 14 13 13 13
12 14 14 14 14 15 14 16 17 16 15 15 15 15 16 15 14 14 13 16 16 16 16 15 15 16 16 16 16 16 16 16 16 15 15 14 14 13 13 13 13 13 12 12
13 15 14 15 16 16 16 16 14 13 13 14 14 15 15 14 15 14 13 15 16 15 15 15 15 15 15 15 15 15 15 15 14 14 14 13 13 13 13 13 12 12 12 12
12 15 15 16 15 16 15 15 14 14 13 14 14 15 16 15 15 15 13 15 16 16 16 15 15 15 15 14 14 13 13 13 13 13 12 12 12 12 12 11 11 11 11 11
11 12 14 15 15 14 14 14 13 14 14 14 16 15 16 14 15 16 16 16 16 16 16 16 15 14 13 13 13 12 12 12 12 12 12 12 12 11 11 11 11 10 10 10
13 13 14 15 15 15 14 14 15 14 14 14 15 16 17 12 12 13 14 15 15 16 16 15 14 13 12 12 12 11 11 11 11 11 11 11 11 11 11 10 10 10 9 9
14 12 14 14 15 15 14 15 11 14 14 14 15 15 15 14 12 12 11 14 15 15 14 14 13 12 11 11 11 11 11 11 10 11 11 10 10 10 10 10 9 9 8 8
13 13 13 14 13 13 14 14 14 14 14 14 14 15 14 13 12 12 13 15 16 15 14 13 12 11 11 11 10 10 10 10 10 10 10 10 10 9 9 8 8 8 7 7
14 11 11 13 13 13 14 14 14 13 13 12 13 15 14 13 13 14 14 16 15 14 13 12 11 11 10 10 10 10 10 9 9 9 9 9 9 9 8 7 7 6 6 6
14 12 12 13 13 13 13 14 13 12 13 13 13 14 13 13 13 15 15 15 14 13 12 11 10 10 10 10 10 9 9 9 8 8 8 8 7 7 6 6 5 5 5 5
14 13 13 13 13 13 13 13 13 13 12 13 13 15 15 15 15 14 16 16 13 11 11 11 10 10 9 9 9 8 8 8 8 8 7 6 6 5 5 4 4 4 4 4
13 13 13 13 14 14 14 13 13 12 13 13 13 13 15 13 13 14 14 13 11 11 11 10 10 9 9 8 8 8 7 7 6 6 5 5 4 4 4 4 3 3 3 2
12 12 13 13 13 13 13 13 12 12 12 12 13 13 14 14 13 13 13 12 11 11 10 9 9 8 8 8 8 7 6 6 5 4 4 4 4 3 3 3 2 2 2 2
12 11 12 12 11 12 13 12 12 12 12 13 13 13 13 13 11 12 12 11 11 10 10 9 8 8 7 7 6 6 5 4 3 3 3 3 2 2 2 1 1 0 0 -0
10 9 10 10 12 13 13 12 12 12 12 13 12 11 11 10 11 12 13 12 11 10 8 7 7 7 6 5 4 4 3 2 2 2 2 2 1 1 0 -0 -0 -1 -1 -1
8 9 9 9 10 12 12 12 12 13 10 11 11 11 12 11 11 11 12 12 11 9 7 6 6 5 4 3 3 3 2 2 2 2 2 1 0 -0 -1 -1 -1 -1 -2 -2
7 8 9 8 9 11 12 12 13 13 10 10 10 10 10 10 8 9 10 10 9 7 5 5 5 4 3 3 2 2 2 2 1 1 0 -1 -1 -2 -2 -2 -2 -3 -3 -3
8 7 8 8 9 9 10 11 12 11 10 8 9 9 9 9 8 9 9 8 7 6 6 5 4 3 3 2 2 1 1 0 -0 -1 -1 -2 -2 -2 -3 -3 -3 -3 -4 -4
8 7 7 7 8 8 10 11 9 9 9 9 9 9 9 9 9 9 9 8 7 6 5 4 3 3 2 1 1 0 -0 -1 -1 -2 -2 -2 -2 -3 -3 -4 -4 -4 -5 -5
8 8 7 8 8 9 10 10 10 10 9 9 9 9 9 9 9 8 7 6 5 4 3 3 2 1 0 -0 -0 -1 -1 -2 -2 -2 -2 -2 -3 -3 -4 -5 -5 -5 -6 -6
8 8 8 9 8 8 9 9 9 9 9 8 8 8 8 7 7 7 6 5 3 2 2 1 1 0 -0 -1 -1 -1 -2 -2 -2 -3 -3 -3 -4 -5 -5 -5 -6 -6 -7 -8
7 8 7 7 8 8 8 8 8 8 7 7 7 7 6 6 6 6 4 3 3 2 1 0 0 -0 -1 -1 -1 -2 -2 -3 -3 -3 -4 -4 -5 -6 -6 -6 -6 -7 -8 -9
6 7 7 7 7 8 8 8 8 7 7 6 6 6 6 5 5 4 3 2 1 -0 -0 -0 -1 -1 -1 -2 -2 -2 -3 -4 -4 -4 -4 -5 -6 -6 -7 -7 -7 -7 -8 -9
Wind_Speed
10 8 12 13 10 7 6 4 6 9 9 8 10 10 13 3 6 8 8 7 7 5 3 6 9 9 9 10 10 8 7 2 4 3 3 3 5 5 5 7 6 8 9 10
10 18 15 11 7 5 4 8 10 10 5 3 4 7 7 2 6 7 9 8 6 5 6 9 10 10 11 10 10 9 9 8 2 3 3 2 2 3 4 3 5 7 8 8
13 13 15 11 7 8 8 9 8 5 6 4 2 5 2 1 2 4 5 6 6 7 7 8 10 10 11 11 10 10 11 10 9 5 2 2 2 2 3 3 4 6 7 8
9 10 16 13 12 11 10 12 9 4 1 3 0 4 4 5 4 5 5 6 7 7 7 7 8 9 9 9 9 11 11 10 10 10 8 7 4 3 4 3 4 6 6 7
8 11 14 13 11 12 9 6 3 1 1 3 2 2 6 5 7 8 7 7 7 7 7 6 6 7 8 9 10 10 11 11 11 11 9 8 7 4 3 4 7 8 8 8
2 6 10 9 6 7 6 5 6 4 3 4 7 7 7 8 11 10 8 8 9 8 7 5 5 6 8 9 9 9 11 12 12 12 11 11 10 9 9 10 10 8 7 7
2 1 3 5 6 2 5 5 1 1 3 6 4 5 9 10 10 15 14 11 9 9 7 6 5 5 6 8 8 8 10 11 11 11 12 11 10 10 10 8 7 7 6 6
7 9 6 5 6 8 6 7 6 6 6 4 2 7 6 5 6 10 12 11 10 8 7 7 6 5 5 7 9 10 11 11 11 11 11 10 10 8 7 7 6 7 6 6
9 5 2 1 3 7 7 6 5 2 1 2 4 6 4 7 10 13 12 10 9 8 7 7 6 5 6 9 9 9 10 11 11 10 10 10 9 9 8 8 8 7 8 9
7 5 2 2 3 1 3 5 4 2 4 4 4 4 4 4 10 11 10 10 9 8 6 6 5 5 7 8 8 9 10 8 8 8 8 7 8 9 9 9 10 10 11 11
5 6 3 3 5 7 4 3 3 3 3 3 3 6 6 10 11 12 11 11 10 9 7 6 4 7 9 8 8 8 8 8 9 9 8 8 8 8 7 8 9 10 10 12
4 6 5 3 2 3 5 6 7 5 4 4 3 6 2 4 8 9 10 9 6 8 7 6 8 8 8 7 7 8 8 8 8 7 7 7 8 9 10 11 12 12 12 13
5 6 6 2 2 3 4 5 5 5 4 5 5 5 3 3 5 4 5 6 8 8 7 8 8 8 7 7 7 7 7 7 7 7 8 8 9 10 10 11 12 13 14 14
3 4 5 8 6 7 6 7 7 7 6 6 7 4 3 5 4 5 7 9 8 9 9 8 7 6 6 7 7 7 7 6 7 7 8 8 9 9 10 11 13 14 15 15
3 4 2 3 2 3 5 7 8 7 7 6 4 5 6 8 8 6 6 7 12 10 9 8 7 6 5 6 6 6 6 7 8 8 8 8 8 9 10 12 13 14 14 15
3 3 2 1 3 1 3 5 6 6 5 6 3 8 5 6 2 1 3 10 12 11 9 8 7 6 5 4 4 5 6 6 6 6 6 8 9 11 12 13 14 15 15 16
2 4 3 1 3 4 4 5 6 5 6 6 5 4 5 6 6 3 4 9 10 9 8 7 6 5 4 4 4 5 5 6 6 6 7 9 11 12 13 13 14 14 15 15
5 4 3 1 1 3 2 2 5 5 3 1 4 6 4 2 2 2 1 9 11 9 7 6 4 3 4 3 3 3 4 5 5 6 7 10 11 12 12 12 13 13 13 13
4 5 4 2 3 5 2 1 4 5 4 3 3 2 2 1 2 3 2 3 6 7 7 5 4 3 3 3 3 5 5 6 8 8 9 10 10 12 13 13 14 13 13 14
6 5 5 3 2 5 4 3 2 2 3 3 4 4 5 3 3 4 2 6 9 9 6 5 4 3 3 4 5 7 7 8 8 9 9 9 9 11 12 13 12 12 13 14
4 4 3 3 3 6 5 4 1 3 3 2 4 4 5 2 3 1 7 7 7 7 6 6 4 3 4 5 6 7 7 7 8 8 8 8 8 10 11 11 12 13 14 14
7 6 5 5 4 7 3 0 2 4 3 2 4 3 2 2 3 5 7 9 8 6 5 5 3 3 4 5 6 6 7 8 8 8 9 9 9 10 11 12 12 12 13 13
6 6 6 8 7 2 2 4 4 5 5 4 3 4 2 5 6 6 5 4 4 5 5 3 2 2 3 4 4 5 7 8 8 8 9 9 10 10 10 10 12 12 11 11
3 3 3 3 4 5 4 3 3 4 5 7 6 4 2 4 5 7 6 5 5 5 4 2 2 3 4 4 5 6 7 7 7 9 10 10 9 11 10 9 10 11 11 11
6 4 3 4 4 1 5 5 6 6 5 4 4 4 4 3 1 3 3 4 5 5 3 2 2 3 5 6 7 7 7 7 8 9 9 9 8 10 10 11 11 12 12 14
7 8 6 5 4 3 4 1 3 3 3 5 7 5 2 2 1 3 3 4 4 3 2 1 2 4 5 6 8 7 7 7 8 9 9 9 10 9 10 12 15 19 20 26
Wind_Direction
170 173 196 194 191 182 178 234 277 273 250 203 212 236 266 263 124 123 126 123 114 99 53 29 21 12 15 19 25 26 27 318 188 163 171 193 226 233 235 234 234 228 228 228
169 205 201 191 185 194 219 271 286 292 285 247 244 265 279 156 162 157 152 144 125 85 42 24 19 17 19 21 21 22 20 12 31 162 155 161 197 236 246 245 246 245 241 238
186 185 182 186 182 200 223 225 243 253 322 326 312 291 238 78 135 151 150 134 106 80 56 28 19 16 17 24 20 27 22 20 20 34 94 84 67 9 358 336 295 272 256 254
193 171 174 193 205 184 233 229 226 241 309 286 130 275 250 208 194 174 164 120 95 74 60 43 29 24 22 18 24 32 29 30 29 33 50 53 49 20 342 323 322 314 297 282
177 162 171 191 205 188 219 200 176 175 129 291 266 219 259 179 215 208 196 147 119 93 82 64 45 37 30 23 27 27 30 33 30 40 51 55 50 26 348 356 1 358 352 351
97 158 166 180 170 179 164 97 43 35 45 265 221 205 245 199 206 193 190 166 139 121 111 94 62 45 34 29 31 30 35 31 27 33 36 40 37 26 22 12 11 2 355 356
24 114 152 135 115 111 107 115 88 268 230 244 212 194 253 219 197 182 172 169 155 148 138 117 97 68 47 38 34 33 41 35 28 34 34 33 34 35 33 20 11 4 358 351
157 166 179 174 158 157 170 150 175 202 213 251 217 225 259 254 166 135 147 154 161 159 144 139 135 106 63 44 36 38 46 39 30 31 29 30 31 30 25 14 5 1 351 338
159 168 84 122 132 131 167 187 184 185 257 253 244 266 335 40 109 129 141 155 170 172 164 151 130 92 62 51 46 53 53 42 31 29 29 29 26 24 17 8 6 357 349 344
149 128 179 153 94 56 137 160 153 202 200 232 272 264 233 153 147 144 161 177 188 185 162 138 121 95 74 70 59 53 51 45 30 26 25 23 20 16 10 6 1 354 346 341
132 125 139 145 189 184 161 197 173 176 176 187 236 262 223 192 180 172 185 197 193 174 161 154 121 88 85 71 61 54 44 35 25 19 15 16 13 7 5 2 352 346 341 338
136 113 126 200 236 201 190 189 164 169 187 171 188 264 293 168 183 180 200 206 180 164 156 127 106 100 86 77 66 53 40 30 16 7 8 12 12 9 6 359 353 348 344 341
145 124 118 131 252 229 217 193 164 141 145 189 185 254 321 96 145 179 183 196 180 151 134 119 110 105 98 82 67 52 37 20 7 7 11 14 11 4 356 351 347 345 342 339
119 128 163 174 187 168 184 185 174 161 174 199 209 209 228 224 208 213 214 206 150 147 148 134 122 112 95 78 64 48 28 13 9 12 12 10 0 354 348 345 345 342 339 337
79 121 133 115 117 133 175 186 186 184 181 198 203 213 239 254 261 260 239 162 148 163 160 141 133 120 101 82 65 48 27 16 12 8 6 355 347 347 346 344 341 337 335 334
53 117 130 58 17 63 230 238 230 221 202 233 277 283 256 263 288 210 168 157 166 169 154 140 135 123 101 88 73 49 27 11 5 2 354 348 352 350 347 343 339 336 333 331
71 102 119 213 318 328 257 208 203 198 191 181 216 265 357 357 29 50 195 181 172 165 156 148 134 129 123 100 64 39 12 1 1 356 353 355 352 346 341 336 332 330 327 324
121 110 114 150 2 236 255 288 181 140 85 5 357 346 358 53 103 8 271 183 176 163 138 127 129 98 74 53 45 40 19 359 350 354 356 351 346 339 333 329 326 322 321 322
78 126 111 134 201 276 298 342 118 121 71 35 72 7 335 129 91 307 305 146 140 121 123 133 127 108 94 47 22 33 11 358 360 355 348 341 336 331 329 326 323 320 319 316
52 74 105 133 191 238 214 226 241 103 151 344 358 5 331 352 331 283 159 106 108 112 118 114 100 92 73 32 27 26 5 358 348 336 329 327 324 322 320 316 314 314 314 312
86 71 128 157 228 269 254 251 164 178 217 25 56 35 20 354 273 177 118 106 123 137 135 122 119 107 65 40 28 13 354 338 322 316 313 312 313 315 313 313 313 312 310 309
166 150 170 154 210 251 276 271 161 169 122 91 62 50 71 175 170 154 151 161 164 141 122 116 103 76 52 33 23 351 328 313 311 311 310 312 312 312 313 309 308 309 309 310
193 189 186 191 204 177 36 113 134 140 151 177 189 218 196 197 202 187 169 156 133 118 118 117 114 47 24 20 7 327 308 309 312 310 307 308 310 308 305 306 309 310 310 309
240 207 209 233 183 137 132 133 174 176 194 212 214 221 243 249 227 186 166 151 130 119 143 152 70 9 349 340 322 304 302 309 312 309 306 304 304 310 311 308 307 307 309 308
219 201 206 252 281 138 175 206 209 224 244 259 256 241 247 259 224 139 143 153 147 154 152 82 21 336 316 315 309 306 305 311 308 301 298 302 305 307 310 309 307 305 301 301
219 204 195 226 222 180 228 232 182 193 226 249 243 244 46 37 148 144 154 154 152 140 105 13 321 306 297 299 298 299 296 290 293 306 310 310 310 308 310 310 307 303 306 311
Height
1493 1499 1502 1505 1504 1508 1512 1515 1514 1505 1494 1495 1495 1493 1487 1483 1484 1484 1485 1486 1487 1487 1487 1485 1484 1482 1480 1479 1477 1476 1476 1476 1476 1478 1479 1480 1481 1481 1481 1481 1481 1480 1479 1477
1495 1496 1497 1500 1503 1507 1511 1516 1514 1501 1492 1492 1491 1491 1486 1484 1484 1484 1485 1486 1487 1487 1487 1486 1485 1483 1481 1480 1478 1477 1476 1475 1474 1474 1476 1478 1479 1479 1479 1479 1478 1476 1474 1472
1483 1487 1495 1497 1502 1509 1512 1515 1512 1506 1497 1493 1494 1495 1487 1485 1485 1486 1486 1485 1486 1487 1487 1487 1486 1484 1483 1481 1479 1477 1476 1475 1474 1474 1474 1475 1476 1476 1476 1475 1474 1472 1469 1467
1482 1482 1489 1495 1500 1503 1511 1503 1503 1501 1505 1506 1501 1510 1493 1488 1488 1487 1486 1485 1486 1488 1489 1489 1488 1486 1484 1482 1481 1480 1479 1477 1476 1475 1474 1474 1474 1473 1472 1471 1469 1467 1465 1462
1478 1479 1485 1492 1494 1497 1501 1496 1498 1501 1505 1508 1504 1507 1494 1489 1490 1488 1485 1484 1487 1489 1490 1490 1489 1487 1486 1485 1483 1483 1482 1480 1478 1477 1475 1474 1473 1472 1471 1469 1466 1464 1462 1460
1475 1475 1481 1485 1487 1491 1493 1497 1504 1508 1511 1515 1503 1502 1496 1488 1480 1483 1484 1484 1486 1489 1490 1490 1490 1489 1488 1487 1485 1484 1483 1481 1480 1478 1476 1474 1473 1472 1470 1468 1465 1463 1461 1458
1480 1476 1477 1479 1489 1491 1494 1504 1518 1520 1520 1509 1498 1500 1487 1472 1470 1472 1478 1482 1485 1488 1490 1490 1491 1490 1489 1488 1486 1485 1484 1482 1481 1480 1478 1476 1475 1473 1471 1468 1466 1462 1459 1456
1485 1493 1479 1479 1482 1490 1495 1500 1515 1519 1517 1506 1495 1497 1479 1468 1466 1471 1476 1479 1483 1487 1489 1490 1490 1489 1488 1487 1486 1485 1484 1483 1482 1480 1478 1477 1475 1472 1470 1467 1464 1461 1457 1454
1475 1481 1477 1477 1478 1483 1496 1497 1495 1503 1504 1508 1495 1481 1471 1470 1469 1472 1477 1479 1482 1485 1487 1488 1489 1489 1488 1488 1487 1486 1485 1483 1482 1480 1478 1476 1473 1471 1468 1465 1462 1458 1454 1450
1464 1483 1479 1479 1479 1482 1487 1489 1508 1505 1510 1511 1496 1489 1482 1478 1476 1476 1478 1479 1481 1484 1485 1487 1489 1489 1488 1488 1487 1486 1485 1484 1482 1480 1477 1474 1472 1469 1466 1463 1459 1455 1451 1446
1462 1476 1485 1482 1484 1485 1489 1491 1492 1497 1499 1507 1504 1494 1474 1474 1474 1474 1475 1477 1479 1482 1485 1487 1488 1488 1488 1487 1487 1486 1485 1483 1481 1478 1475 1473 1470 1467 1463 1459 1454 1449 1445 1440
1458 1473 1485 1483 1479 1480 1482 1484 1489 1499 1501 1505 1505 1493 1470 1471 1473 1473 1474 1475 1479 1483 1485 1487 1486 1486 1486 1486 1485 1484 1482 1480 1478 1475 1472 1469 1466 1462 1458 1453 1449 1444 1439 1434
1456 1469 1485 1488 1488 1484 1482 1480 1483 1488 1494 1499 1499 1492 1473 1471 1473 1474 1475 1477 1479 1481 1483 1483 1483 1483 1483 1483 1483 1481 1480 1478 1475 1472 1469 1466 1461 1457 1452 1448 1443 1439 1434 1429
1454 1465 1473 1480 1477 1475 1479 1478 1479 1484 1494 1491 1490 1481 1475 1473 1474 1474 1474 1474 1475 1479 1481 1481 1480 1480 1481 1481 1480 1479 1478 1476 1473 1470 1467 1462 1457 1453 1448 1444 1439 1434 1429 1424
1455 1464 1466 1467 1467 1469 1472 1474 1477 1480 1480 1483 1481 1480 1475 1474 1473 1471 1469 1469 1474 1476 1477 1477 1477 1478 1478 1478 1477 1476 1475 1474 1471 1467 1463 1459 1454 1449 1445 1440 1435 1431 1426 1421
1457 1465 1466 1471 1471 1471 1473 1472 1474 1476 1477 1478 1478 1476 1469 1468 1468 1468 1468 1468 1470 1472 1474 1475 1475 1476 1476 1475 1474 1473 1472 1470 1467 1463 1459 1455 1451 1446 1441 1437 1433 1428 1423 1417
1460 1465 1470 1475 1475 1471 1473 1469 1471 1471 1471 1472 1474 1471 1467 1466 1468 1469 1468 1468 1469 1471 1472 1473 1473 1474 1475 1474 1472 1469 1467 1465 1462 1459 1455 1451 1446 1442 1438 1433 1430 1425 1419 1413
1465 1471 1476 1479 1476 1476 1468 1461 1461 1465 1467 1466 1468 1470 1468 1468 1468 1468 1468 1469 1469 1470 1471 1473 1474 1474 1474 1473 1469 1466 1464 1462 1458 1454 1450 1446 1441 1437 1434 1430 1425 1420 1414 1408
1463 1469 1477 1481 1481 1470 1465 1461 1460 1463 1473 1469 1469 1469 1467 1467 1468 1467 1467 1467 1468 1469 1470 1472 1472 1473 1471 1469 1466 1462 1460 1458 1455 1451 1447 1442 1438 1433 1429 1425 1420 1416 1409 1404
1466 1468 1475 1483 1482 1475 1465 1459 1458 1461 1474 1471 1469 1469 1469 1468 1471 1468 1465 1465 1466 1467 1469 1471 1471 1470 1467 1465 1462 1459 1457 1453 1450 1446 1442 1438 1434 1429 1424 1420 1416 1411 1405 1399
1473 1475 1478 1482 1481 1473 1462 1457 1459 1471 1474 1470 1468 1468 1467 1467 1468 1466 1464 1464 1465 1466 1467 1467 1467 1466 1463 1460 1458 1456 1454 1450 1446 1442 1439 1435 1430 1425 1421 1416 1412 1406 1400 1393
1469 1474 1478 1482 1482 1479 1461 1459 1465 1468 1467 1467 1466 1467 1467 1467 1466 1464 1463 1463 1464 1464 1464 1464 1463 1460 1458 1456 1455 1453 1451 1446 1442 1438 1435 1431 1425 1421 1415 1411 1406 1400 1394 1387
1463 1463 1466 1468 1468 1461 1458 1459 1461 1463 1464 1464 1465 1465 1465 1464 1463 1463 1463 1463 1462 1461 1461 1460 1459 1457 1456 1454 1452 1449 1445 1441 1436 1433 1429 1424 1420 1415 1410 1406 1400 1394 1388 1382
1457 1456 1458 1458 1457 1457 1458 1459 1460 1460 1461 1461 1461 1461 1462 1462 1461 1460 1460 1459 1459 1459 1458 1457 1455 1454 1453 1451 1448 1444 1440 1435 1432 1428 1424 1419 1414 1409 1405 1401 1396 1389 1383 1378
1455 1455 1456 1457 1454 1456 1459 1458 1458 1458 1459 1458 1458 1459 1459 1458 1457 1457 1456 1455 1454 1453 1453 1452 1452 1451 1449 1447 1443 1440 1436 1432 1428 1423 1418 1413 1409 1405 1399 1394 1390 1385 1379 1376
1450 1449 1452 1453 1453 1454 1455 1456 1455 1456 1456 1456 1456 1454 1453 1453 1453 1453 1452 1452 1451 1450 1449 1449 1449 1447 1444 1441 1438 1435 1431 1427 1422 1417 1413 1409 1405 1399 1393 1387 1382 1376 1374 1369